Regional Weather Roundup
Issued by NWS

Home | Current Version | Previous Version | Graphics & Text | Print | Product List | Glossary On
Versions: 1 2 3 4 5 6 7 8 9 10 11 12 13 14 15 16 17 18 19 20 21 22 23 24 25 26 27 28 29 30 31 32 33 34 35 36 37 38 39 40 41 42 43 44 45 46 47 48 49 50
729
ASUS43 KFSD 262010
RWRSD

WEATHER ROUNDUP FOR SOUTH DAKOTA
NATIONAL WEATHER SERVICE SIOUX FALLS SD
300 PM CDT SUN MAR 26 2017

NOTE: "FAIR" INDICATES FEW OR NO CLOUDS BELOW 12,000 FEET WITH NO
SIGNIFICANT WEATHER AND/OR OBSTRUCTIONS TO VISIBILITY.


SDZ001>005-009-010-012>017-262100-
NORTHWEST AND NORTH CENTRAL SOUTH DAKOTA

CITY           SKY/WX    TMP DP  RH WIND       PRES   REMARKS
BUFFALO          N/A     54  37  52 SW6       29.86F
FAITH            N/A     48  34  58 MISG      29.93S
MOBRIDGE       PTSUNNY   51  35  54 VRB3      29.91F
$$

SDZ012>016-024>037-041>051-057-063-072>074-262100-
SOUTHWEST AND SOUTH CENTRAL SOUTH DAKOTA

CITY           SKY/WX    TMP DP  RH WIND       PRES   REMARKS
RAPID CTY ARPT LGT RAIN  43  39  86 N15       29.94R
PIERRE         CLOUDY    42  38  85 SW8       29.93F
CUSTER         LGT RAIN  38  36  92 E5        29.90S VSB<1/4
ELLSWORTH AFB  LGT RAIN  41  41 100 N16       29.93
PHILIP         LGT RAIN  44  41  89 N10       29.94S
PINE RIDGE     PTSUNNY   53  39  59 N10       29.92R
SPEARFISH      LGT RAIN  39  39 100 CALM      29.96S
WINNER         CLOUDY    48  40  73 E6        29.91F
$$

SDZ004>011-016>023-039-040-262100-
NORTHEAST SOUTH DAKOTA

CITY           SKY/WX    TMP DP  RH WIND       PRES   REMARKS
ABERDEEN       CLOUDY    46  36  68 W6        29.95S
WATERTOWN      CLOUDY    41  36  82 CALM      29.93S
BROOKINGS      CLOUDY    40  36  86 NW3       29.93S
SISSETON         N/A     42  38  85 W3        29.94R
$$

SDZ017-020-022-023-036>040-048>070-262100-
SOUTHEAST SOUTH DAKOTA

CITY           SKY/WX    TMP DP  RH WIND       PRES   REMARKS
SIOUX FALLS    CLOUDY    45  38  76 N5        29.93F
HURON          CLOUDY    45  37  73 W3        29.95S
CHAMBERLAIN    CLOUDY    47  40  78 CALM      29.93F
MITCHELL       CLOUDY    47  38  71 NE5       29.94F
YANKTON        CLOUDY    45  37  76 N6        29.92F
$$

ABBREVIATIONS USED IN REMARKS
   TC - TEMPERATURE IN CELSIUS
  WCI - WIND CHILL INDEX
   HX - HEAT INDEX
  VSB - VISIBILITY





USA.gov is the U.S. government's official web portal to all federal, state and local government web resources and services.